Flag Weather past 2 weeks in Dreieich, Hesse, Germany

Now
41 °F

Overcast.


Feels Like: 38 °F
Forecast: 35 / 40 °F
Wind: 5 mph from Northeast

Location: Frankfurt / M-Flughafen

Current Time: Nov 28, 2014 at 5:12:16 PM

Latest Report: Nov 28, 2014 at 5:00 PM


Visibility: 7 mi

Pressure: 29.91 "Hg

Humidity: 82%

Dew point: 36 °F

Location of DreieichLocation

Historic Weather in Dreieich — Graph

°F

Dreieich temperature yesterday

Maximum temperature yesterday: 44 °F (at 3:00 PM)
Minimum temperature yesterday: 40 °F (at 7:00 AM)
Average temperature yesterday: 42 °F

Past Weeks' High & Low Weather Summary

 TemperatureHumidityPressure
High54 °F (Nov 14, 3:00 PM)100% (Nov 19, 3:00 AM)30.36 "Hg (Nov 19, 3:00 AM)
Low32 °F (Nov 25, 5:00 AM)65% (Nov 21, 3:00 PM)29.54 "Hg (Nov 16, 6:00 AM)
Average44 °F89%30.00 "Hg
* Reported Nov 13 3:00 PM — Nov 28 3:00 PM, Dreieich, Weather by CustomWeather, © 2014

Note: Actual official high and low records may vary slightly from our data, if they occured in-between our weather recording intervals... More about our weather records

Advertising

Dreieich weather history for previous 24 hours

 ConditionsComfort  
Time TempWeatherWind HumidityBarometerVisibility
3:00 PM
Nov 28
41 °FOvercast.3 mph82%29.88 "Hg7 mi
2:00 PM41 °FOvercast.5 mph85%29.89 "Hg7 mi
1:00 PM41 °FOvercast.6 mph84%29.89 "Hg6 mi
12:00 PM41 °FOvercast.6 mph85%29.90 "Hg6 mi
11:00 AM41 °FOvercast.6 mph86%29.90 "Hg5 mi
10:00 AM41 °FOvercast.3 mph85%29.90 "Hg5 mi
9:00 AM41 °FFog.3 mph85%29.89 "Hg4 mi
8:00 AM41 °FFog.3 mph87%29.88 "Hg4 mi
7:00 AM40 °FFog.2 mph90%29.87 "Hg4 mi
6:00 AM39 °FPassing clouds.2 mph89%29.87 "Hg6 mi
5:00 AM39 °FPassing clouds.2 mph87%29.86 "Hg6 mi
3:00 AM39 °FPassing clouds.3 mph89%29.86 "Hg6 mi
2:00 AM37 °FPassing clouds.2 mph92%29.86 "Hg6 mi
1:00 AM39 °FPassing clouds.2 mph89%29.85 "Hg6 mi
12:00 AM40 °FPassing clouds.2 mph88%29.85 "Hg7 mi
11:00 PM
Nov 27
40 °FPassing clouds.2 mph86%29.85 "Hg8 mi
10:00 PM42 °FPassing clouds.3 mph83%29.85 "Hg9 mi
9:00 PM42 °FOvercast.2 mph81%29.85 "Hg10 mi
8:00 PM42 °FOvercast.2 mph82%29.85 "Hg10 mi
7:00 PM42 °FLight rain. Overcast.2 mph82%29.84 "Hg9 mi
6:00 PM43 °FLight rain. Overcast.3 mph82%29.83 "Hg9 mi
5:00 PM43 °FLight rain. Overcast.2 mph80%29.83 "Hg9 mi
Weather by CustomWeather, © 2014

See weather overviewHow to use our weather pages